Location: Nebula Knoll Observatory
(43.6666°N, 71.0000°W)
Time: 08:54:46
(UTC-04:00)

Daily predictions for brighter satellites

Satellite Brightness Start Highest point End
(mag) Time Altitude Azimuth Time Altitude Azimuth Time Altitude Azimuth
COSMOS 2455 4.1 20:37:55 10° NW 20:43:26 39° WSW 20:48:55 10° S
Envisat 3.1 20:40:40 10° SSE 20:45:45 89° E 20:50:52 10° NNW
Cosmos 1437 Rocket 4.2 20:43:12 10° NNE 20:46:15 22° ENE 20:49:17 10° ESE
Meteor 2-4 Rocket 4.0 20:42:22 10° SSE 20:47:49 51° E 20:53:27 10° NNE
Cosmos 1536 Rocket 3.8 20:43:34 10° SSW 20:47:53 74° W 20:52:14 10° N
Cosmos 1437 3.4 20:45:00 10° SSW 20:48:11 60° WNW 20:51:24 10° N
SAR-Lupe-1 4.1 20:45:09 10° SSE 20:48:42 64° ENE 20:52:17 10° N
NOSS 2-2 (E) 4.1 20:44:53 10° SW 20:48:55 64° NW 20:53:43 10° NNE
Helios 1B rocket 2.4 20:46:47 10° NNE 20:50:56 75° ESE 20:55:03 10° S
Cosmos 192 4.4 20:52:32 10° S 20:57:19 57° ESE 21:02:08 10° NNE
PSLV R/B 3.7 20:54:45 10° W 20:57:42 40° SSW 21:00:36 10° ESE
USA 186 3.7 20:55:01 10° SSW 20:57:49 28° W 21:00:34 10° NW
Cosmos 405 3.2 20:59:14 10° N 21:02:45 55° ENE 21:06:14 10° SSE
Cosmos 1943 Rocket 4.4 20:58:58 10° NW 21:03:09 22° W 21:07:18 10° SSW
Cosmos 2074 Rocket 4.1 20:57:51 10° N 21:04:09 85° W 21:10:25 10° S
Cosmos 1025 Rocket 3.3 21:01:06 10° SSE 21:05:11 46° E 21:09:17 10° NNE
USA 245 4.4 21:04:55 10° ESE 21:06:13 13° ENE 21:07:28 10° NE
Cosmos 2184 Rocket 4.2 21:01:02 10° N 21:07:25 83° W 21:13:42 10° S
Cosmos 1980 Rocket 4.3 21:06:14 10° N 21:09:19 15° NE 21:12:23 10° ENE
Aureole 1 Rocket 2.2 21:06:51 10° SSW 21:10:06 86° WNW 21:13:05 10° NNE
COSMOS 2487 4.3 21:09:55 13° SE 21:11:28 16° E 21:13:40 10° ENE
Cosmos 2058 Rocket 4.2 21:12:41 10° NNE 21:16:30 28° ENE 21:19:33 14° SE
Cosmos 405 Rocket 3.9 21:12:58 10° SSW 21:16:36 45° WNW 21:20:19 10° N
Cosmos 1371 Rocket 4.1 21:13:12 10° NNW 21:18:33 75° ENE 21:23:23 12° SSE
DEBRIS 3.9 21:16:01 10° WSW 21:19:36 86° SSE 21:32:27 10° ENE
ARGOS 3.6 21:17:01 12° SE 21:21:45 49° ENE 21:26:59 10° N
Okean 2 3.5 21:18:35 10° S 21:22:35 55° E 21:26:35 10° NNE
Meteor 1-23 Rocket 4.2 21:19:24 10° S 21:24:58 81° E 21:30:37 10° NNE
Cosmos 1441 Rocket 3.4 21:21:40 10° SSW 21:25:23 69° WNW 21:29:08 10° N
Lacrosse 5 rocket 4.3 21:22:46 10° NNW 21:25:32 15° N 21:28:20 10° NE
Tiangong 2 1.1 21:22:36 10° WSW 21:25:45 62° S 21:28:45 11° E
ERS-1 Rocket 3.0 21:21:38 10° SSE 21:26:40 88° WSW 21:31:43 10° NNW
Resurs 01 Rocket 4.4 21:26:14 10° WSW 21:28:31 14° W 21:30:51 10° WNW
CENTAUR R/B 4.1 21:21:12 10° NW 21:28:33 42° WSW 21:36:16 10° S
NOAA 11 4.2 21:23:37 11° SSE 21:28:50 77° ENE 21:34:17 10° N
Terra 3.5 21:29:03 12° ESE 21:32:01 20° ENE 21:35:27 10° NNE
OE (NEXTSAT) 4.4 21:29:23 10° WNW 21:32:57 69° SSW 21:35:15 20° ESE
SPOT 5 2.8 21:30:14 16° SE 21:33:29 55° ENE 21:37:46 10° N
Nadezhda 1 Rocket 4.4 21:31:28 10° SSW 21:37:48 70° W 21:44:13 10° N
H-2A R/B 3.8 21:38:05 14° ESE 21:40:37 22° ENE 21:44:03 10° NNE
MOS 1-B Rocket 4.0 21:35:56 13° SSE 21:41:15 89° ENE 21:47:50 10° NNW
MetOp-B 4.1 21:36:56 13° SSE 21:41:41 90° ENE 21:47:05 10° NNW
Meteor 1-15 Rocket 4.3 21:36:30 10° NNW 21:42:07 79° W 21:47:18 12° S
Cosmos 2278 3.8 21:39:39 10° NNW 21:45:22 70° ENE 21:49:20 20° SE
Cosmos 2082 Rocket 2.7 21:41:51 14° SSE 21:46:16 37° ESE 21:51:26 10° NE
Meteor 2-19 Rocket 4.4 21:40:39 10° N 21:46:48 83° E 21:51:59 15° S
SL-8 Rocket 4.3 21:43:28 10° N 21:49:35 53° ENE 21:53:48 20° SSE
Cosmos 2154 Rocket 4.3 21:45:11 10° NNW 21:51:31 71° W 21:57:43 10° S
SL-24 DEB 4.2 21:57:20 20° S 22:00:32 86° E 22:05:12 10° N
ISS -2.4 21:57:27 10° W 22:00:36 41° NNW 22:03:45 10° NE
H-2A R/B 2.0 21:59:49 24° SSE 22:02:49 70° ENE 22:07:52 10° N
OAO 2 Rocket 4.4 21:59:52 10° WSW 22:03:57 26° S 22:05:08 24° SSE
Cosmos 2369 3.7 21:59:24 10° NNW 22:05:10 85° WSW 22:08:44 24° SSE
Cosmos 1697 Rocket 3.1 22:00:34 10° NNW 22:06:03 52° ENE 22:09:12 25° SE
TELKOM 3 3.3 22:04:16 10° WNW 22:06:41 88° NNE 22:07:27 45° ESE
Cosmos 2228 2.9 22:02:58 10° N 22:07:17 80° E 22:09:27 29° SSE
Cosmos 921 Rocket 3.3 22:05:40 10° NNW 22:10:08 67° WSW 22:12:33 26° S
SL-16 R/B 4.3 22:08:02 10° N 22:11:30 16° NE 22:14:57 10° E
Meteor 1-4 Rocket 2.7 22:10:01 10° N 22:13:34 54° ENE 22:14:27 41° SE
Cosmos 1656 3.6 22:08:12 10° NNW 22:13:41 82° ENE 22:16:38 29° SSE
SL-08 RB Rocket 3.9 22:12:25 23° S 22:15:05 66° WSW 22:19:34 10° NNW
Cosmos 1892 Rocket 4.2 22:15:23 12° SSW 22:19:23 56° W 22:23:44 10° N
Cosmos 2056 Rocket 4.5 22:16:07 10° NW 22:20:54 40° WSW 22:24:17 18° SSW
DMSP B5D2-2 4.1 22:17:38 10° NNE 22:22:54 63° ESE 22:25:40 28° S
Cosmos 1833 Rocket 2.6 22:19:02 16° SSW 22:23:31 70° ESE 22:29:08 10° NNE
Cosmos 1602 Rocket 3.7 22:23:55 38° SSE 22:25:17 55° E 22:29:32 10° NNE
Timation 2 Rocket 4.2 22:23:59 25° S 22:27:25 49° ESE 22:33:20 10° NE
Cosmos 1271 Rocket 3.7 22:25:15 10° N 22:28:48 32° ENE 22:29:26 31° E
SL-08 R/B 4.4 22:23:22 10° N 22:29:30 77° E 22:32:43 30° SSE
CZ-4 R/B 4.5 22:26:12 10° NNE 22:30:57 41° E 22:32:13 35° SE
Cosmos 1269 Rocket 4.5 22:30:24 34° SE 22:31:54 42° ESE 22:36:52 10° NNE
deb Chang Zheng 4 3.8 22:29:15 10° NNE 22:33:28 50° E 22:34:19 42° SE
Cosmos 2218 Rocket 4.0 22:29:41 10° N 22:35:52 84° W 22:39:18 28° S
Cosmos 1066 Rocket 4.2 22:34:16 21° SSW 22:38:02 79° W 22:43:43 10° N
Meteor 2-14 Rocket 4.4 22:33:01 10° N 22:39:05 72° E 22:41:50 34° SSE
Cosmos 1420 Rocket 3.9 22:33:52 10° NNW 22:39:10 81° ENE 22:41:10 39° SSE
Cosmos 1809 Rocket 4.4 22:35:00 10° N 22:41:06 82° W 22:44:16 30° S
Cosmos 1953 3.7 22:39:24 10° NNE 22:42:51 26° ENE 22:43:18 25° E
Cosmos 1048 Rocket 4.1 22:42:28 40° SSE 22:44:00 56° ESE 22:49:04 10° NNE
Cosmos 389 Rocket 4.2 22:41:22 10° NNE 22:43:58 20° ENE 22:43:58 20° ENE
COSMOS 2487 4.2 22:43:44 12° SW 22:46:38 32° WNW 22:49:54 10° N
CARTOSAT-1 3.6 22:50:14 46° S 22:51:26 71° WSW 22:55:45 10° NNW
Cosmos 1452 Rocket 4.0 22:47:52 10° NNW 22:52:59 51° WSW 22:55:04 32° SSW
Cosmos 1980 Rocket 2.2 22:48:40 10° NNW 22:54:21 75° ENE 22:56:23 41° SE
Landsat 7 4.4 22:52:26 31° SSW 22:54:22 49° W 22:59:00 10° NNW
BREEZE-M DEB (TANK) 4.2 23:01:15 17° ENE 23:01:15 17° ENE 23:02:46 10° ENE
Cosmos 1766 3.2 22:55:12 10° NNW 22:59:07 76° W 22:59:35 65° SSW
Meteor 1-21 4.2 22:56:53 38° S 22:59:09 79° E 23:04:55 10° NNE
Meteor 2-16 Rocket 4.4 22:54:22 10° N 23:00:33 89° W 23:03:04 38° S
Cosmos 1544 3.1 22:57:56 10° N 23:01:29 66° ENE 23:01:29 66° ENE
Tiangong 2 2.6 22:59:15 10° W 23:00:58 29° W 23:00:58 29° W
Nadezhda 3 Rocket 4.1 23:02:08 39° SSE 23:04:32 66° E 23:10:51 10° NNE
Cosmos 2322 Rocket 3.3 22:59:30 10° N 23:04:43 35° NE 23:07:11 25° E
USA 267 3.6 22:58:49 10° ENE 23:04:52 39° SE 23:05:41 37° SE
Lacrosse 5 rocket 3.4 23:02:10 10° NNW 23:06:10 27° NNE 23:09:33 13° E
Terra 2.4 23:07:56 37° SSW 23:09:23 49° W 23:14:02 10° NNW
Cosmos 1758 Rocket 4.0 23:13:32 43° E 23:13:32 43° E 23:17:36 10° NNE
Cosmos 2251 Rocket 4.5 23:14:56 31° ESE 23:14:59 31° E 23:19:41 10° NE
Cosmos 1470 4.0 23:11:35 10° NNE 23:15:08 31° ENE 23:15:08 31° ENE
H-2A R/B 3.0 23:15:12 35° SW 23:16:20 41° W 23:20:39 10° NNW
Cosmos 1812 Rocket 4.2 23:13:14 10° NNW 23:17:35 50° W 23:18:32 42° SW
IGS 5A 4.4 23:18:14 33° WSW 23:19:00 36° W 23:22:52 10° NNW
SeaSat 1 3.7 23:17:12 24° E 23:19:09 32° NE 23:23:31 10° N
Cosmos 1821 Rocket 4.1 23:13:05 10° N 23:19:19 63° E 23:21:21 43° SE
Cosmos 1758 3.2 23:20:22 10° N 23:24:21 86° ENE 23:24:21 86° ENE
Cosmos 1707 4.3 23:28:05 25° ENE 23:28:05 25° ENE 23:30:34 10° NNE
Spot 4 4.0 23:26:55 52° SSW 23:27:48 62° WSW 23:32:35 10° NNW
Lacrosse 5 3.3 23:30:33 23° E 23:30:33 23° E 23:33:05 10° ENE
CZ-2C R/B 3.5 23:24:43 10° NNE 23:29:49 35° E 23:30:19 34° ESE
Cosmos 2082 Rocket 3.6 23:25:11 10° WSW 23:30:21 35° NW 23:35:32 10° N
ATLAS CENTAUR R/B 2.2 23:27:06 10° NNW 23:30:30 34° NE 23:30:40 34° NE
Cosmos 1805 3.5 23:27:04 10° NNW 23:30:53 59° W 23:30:53 59° W
USA 229 DEB 3.9 23:29:40 10° NW 23:36:44 65° WSW 23:39:05 44° S
USA 229 3.9 23:29:46 10° NW 23:36:51 66° WSW 23:39:12 44° S
ISS -1.0 23:35:09 10° NW 23:37:42 20° N 23:40:15 10° NE
Cosmos 972 Rocket 3.9 23:33:35 10° NNW 23:38:50 72° ENE 23:39:35 60° SE
Cosmos 1953 Rocket 3.4 23:40:02 82° S 23:40:14 88° E 23:44:44 10° N
USA 234 4.4 23:34:20 10° E 23:40:22 41° NNE 23:46:23 10° NW
Cosmos 1825 Rocket 3.7 23:41:26 60° WSW 23:41:49 63° W 23:46:07 10° N
Cosmos 1605 Rocket 4.4 23:36:04 10° N 23:41:59 50° ENE 23:43:35 40° ESE
H-2A R/B 4.3 23:40:27 11° WSW 23:42:49 14° W 23:45:24 10° WNW
NOSS 3-1 (A) 4.3 23:36:02 10° NNW 23:43:28 62° NE 23:48:12 27° ESE
ALOS 2 3.1 23:46:15 46° E 23:46:29 47° ENE 23:50:42 10° N
Cosmos 1535 Rocket 4.4 23:40:36 10° N 23:46:44 86° W 23:48:20 52° S
Cosmos 1697 Rocket 4.2 23:45:16 10° NW 23:49:39 24° WSW 23:50:57 22° WSW
CZ-4C R/B 4.5 23:52:05 31° WNW 23:52:05 31° WNW 23:54:49 10° NNW
CZ-4B R/B 4.5 23:49:52 10° N 23:54:37 42° WNW 23:56:47 28° WSW
